Regional Weather Roundup
Issued by NWS

Home | Current Version | Previous Version | Graphics & Text | Print | Product List | Glossary Off
Versions: 1 2 3 4 5 6 7 8 9 10 11 12 13 14 15 16 17 18 19 20 21 22 23 24 25 26 27 28 29 30 31 32 33 34 35 36 37 38 39 40 41 42 43 44 45 46 47 48 49 50

000
ASUS43 KMKX 251700
RWRWI

WISCONSIN REGIONAL WEATHER ROUNDUP
NATIONAL WEATHER SERVICE MILWAUKEE/SULLIVAN WI
1200 PM CDT TUE JUL 25 2017

NOTE: "FAIR" INDICATES FEW OR NO CLOUDS BELOW 12,000 FEET WITH NO
SIGNIFICANT WEATHER AND/OR OBSTRUCTIONS TO VISIBILITY.

WIZ001-002-006>008-014>016-023>028-251800-
NORTHWEST WISCONSIN

CITY           SKY/WX    TMP DP  RH WIND       PRES   REMARKS
SUPERIOR ARPT  NOT AVBL
ASHLAND        PTSUNNY   76  63  64 S10G24    30.05S
HAYWARD        CLOUDY    70  61  73 S14G20    30.05F
SIREN          LGT RAIN  70  62  76 S14       30.02F
CUMBERLAND     MOSUNNY   70  61  73 S20G28    30.05F
RICE LAKE      MOSUNNY   70  61  72 SE18G24   30.07F
CHETEK         PTSUNNY   70  63  78 S15G25    30.07F
LADYSMITH      CLOUDY    67  60  79 SE8       30.13S
EAU CLAIRE     NOT AVBL
MENOMONIE      CLOUDY    70  62  78 SE13      30.06F
NEW RICHMOND   PTSUNNY   71  62  73 S14G22    30.03F
OSCEOLA        CLOUDY    71  64  79 SE12      30.04F
$$

WIZ003>005-009-010-017-018-251800-
NORTH CENTRAL WISCONSIN

CITY           SKY/WX    TMP DP  RH WIND       PRES   REMARKS
MANITOWISH WTR CLOUDY    67  55  65 S13G18    30.12F
ARBOR VITAE    MOSUNNY   68  57  67 S9G17     30.13F
WOODRUFF       MOSUNNY   68  57  67 S9G17     30.13F
RHINELANDER    CLOUDY    67  53  61 S9        30.17S
EAGLE RIVER    CLOUDY    67  49  52 S5        30.15S
LAND O LAKES   CLOUDY    69  52  53 S6        30.15F
PHILLIPS       CLOUDY    67  56  67 S13G21    30.13S
TOMAHAWK         N/A     65  55  68 CALM      30.17S
MEDFORD        CLOUDY    65  55  70 S12       30.15S
MERRILL        CLOUDY    66  53  61 SW7       30.19R
$$

WIZ029-030-035-036-043>047-251800-
CENTRAL WISCONSIN

CITY           SKY/WX    TMP DP  RH WIND       PRES   REMARKS
WAUSAU         CLOUDY    66  54  65 S9        30.17R
MOSINEE        LGT RAIN  64  57  77 S9        30.19R
MARSHFIELD     LGT RAIN  64  58  80 S7        30.17S
STEVENS POINT  PTSUNNY   68  55  63 SW9       30.20R
WAUPACA        PTSUNNY   75  59  58 S9        30.18S
WAUTOMA        PTSUNNY   71  60  68 S9        30.19
WISC RAPIDS    CLOUDY    69  58  67 SW7       30.20R
CAMP DOUGLAS   LGT RAIN  68  59  73 S6        30.18R
$$

WIZ011>013-019>022-031-037>040-048>050-251800-
NORTHEAST WISCONSIN

CITY           SKY/WX    TMP DP  RH WIND       PRES   REMARKS
ANTIGO         CLOUDY    64  52  63 S9        30.20S
SHAWANO        CLOUDY    72  57  59 SW5       30.19R
OCONTO         CLOUDY    73  58  61 SW5       30.18R
STURGEON BAY     N/A     74  60  61 SW10G20   30.20R
GREEN BAY      CLOUDY    73  63  70 S10G21    30.19S
MANITOWOC      NOT AVBL
APPLETON       PTSUNNY   72  55  56 SW12      30.18S
CLINTONVILLE   CLOUDY   N/A N/A N/A SW12      30.19S
OSHKOSH        MOSUNNY   73  61  65 SW13      30.19S
$$

WIZ032>034-041-042-053>061-251800-
SOUTHWEST WISCONSIN

CITY           SKY/WX    TMP DP  RH WIND       PRES   REMARKS
LA CROSSE      TSTM      67  64  90 S15       30.09F FOG
SPARTA         CLOUDY    63  61  92 S3        30.18R
VIROQUA        CLOUDY    64  63  99 S3        30.20R
BOSCOBEL       LGT RAIN  71  63  75 CALM      30.19R
PRAIRIE DU CHI CLOUDY    69  62  77 E3        30.17R
PLATTEVILLE    CLOUDY    72  66  81 S7        30.19S
$$

WIZ056-057-062-063-064-067-068-251800-
SOUTH CENTRAL WISCONSIN

CITY           SKY/WX    TMP DP  RH WIND       PRES   REMARKS
REEDSBURG      PTSUNNY   69  61  76 S7        30.19S
BARABOO/DELLS  PTSUNNY   73  57  58 S9        30.19F
LONE ROCK      PTSUNNY   71  63  75 SE5       30.18F
MINERAL POINT  CLOUDY    72  64  78 S3        30.20S
MADISON        CLOUDY    74  61  63 S10       30.19S
MIDDLETON      CLOUDY    75  62  65 S9        30.20S
WATERTOWN      PTSUNNY   73  62  68 S8        30.20S
MONROE         CLOUDY    72  61  68 S9        30.20S
JANESVILLE     MOSUNNY   75  61  60 S8        30.20S
$$

WIZ051-052-058>065-066-070>072-251800-
SOUTHEAST WISCONSIN

CITY           SKY/WX    TMP DP  RH WIND       PRES   REMARKS
MILWAUKEE      MOSUNNY   77  61  57 S14       30.21R
WAUKESHA       MOSUNNY   72  57  60 SW12      30.22R
MILWAUKEE/TIMM NOT AVBL
RACINE         SUNNY     75  60  59 S16       30.23R
KENOSHA        MOSUNNY   77  60  55 S13       30.21S
FOND DU LAC    CLOUDY    76  59  55 SW14      30.20S
SHEBOYGAN      MOSUNNY   75  64  68 S12       30.20R
WEST BEND      PTSUNNY   72  59  64 SW9       30.20S
JUNEAU         CLOUDY    72  60  66 S9        30.22S
$$

LSZ147-162-251800-
LAKE SUPERIOR

STATION/POSITION TIME  TEMP    WIND        PRES    WAVE
                       AIR SEA DIR/SP/G            HT/PER
                 (UTC) (F)     (DEG/KT/KT) (MB)    (FT/S)
W MID LAKE BUOY  1550   56 50  160/  8/  8 1018.0F   1
DEVILS ISLAND    1600   69     180/  8/ 12 1017.2F
SAXON HARBOR     1640   74     200/ 11/ 21 1017.3R
$$

LMZ867-665-643>646-251800-
LAKE MICHIGAN

STATION/POSITION TIME  TEMP    WIND        PRES    WAVE
                       AIR SEA DIR/SP/G            HT/PER
                 (UTC) (F)     (DEG/KT/KT) (MB)    (FT/S)
CHAMBERS ISLAND  1640   71     210/  7/ 11 1021.7R
S GREEN BAY BUOY 1630   70 72  220/ 12/ 16 1021.8R
N MID LAKE BUOY  1550   65 67  180/ 10/ 12 1022.7S   1
NORTHPORT PIER   1640   68     140/ 11/ 14 1022.0R
KEWAUNEE LAKESHO 1630   69     170/ 12/ 13 1021.8R
SHEBOYGAN LAKESH 1600   66     160/ 11/ 12 1022.1F
PORT WASHINGTON  1640   73     160/  8/ 10 1023.7R
ATWATER BUOY     1509   69 69  150/ 10/ 10 1022.4F
MILWAUKEE LAKESH 1630   70     150/ 16/ 17   N/A
S MID LAKE BUOY  1550   70 71  160/ 12/ 14 1023.1R   1/ 3
KENOSHA   LAKESH 1600   71     160/ 14/ 15 1022.4
$$

TC  - TEMPERATURE IN CELSIUS
VSB - VISIBILITY IN STATUTE MILES
WCI - WIND CHILL INDEX
HX  - HEAT INDEX





USA.gov is the U.S. government's official web portal to all federal, state and local government web resources and services.